Powrót do katalogu

DMSP 5D-2 F13 DEB

AktywnySSO
NORAD 40527·DEBRIS·🇺🇸 United States

Wystrzelony Mar 24, 1995 z Vandenberg Space Force Base

Loading…

Następne Przeloty (najbliższe 24 godziny)

TLE

ŚwieżeSource: Space-Track

Epoka: Sep 14, 2026, 11:09 UTC

1 40527U 95015DP  26257.46507929  .00002376  00000-0  98794-3 0  9990
2 40527  98.9546 256.1217 0040109 125.1277 235.3672 14.26934086591369

Śledź DMSP 5D-2 F13 DEB w czasie rzeczywistym z AllMySat

Download on the App Store